Location: Bassano
(45.7667°N, 11.7333°E)
Time: 15:24:50
(UTC+00:00)

Cosmos 1610 Rocket - Pass Details

Date: 07 June 2020
Orbit: 954 x 1001 km, 82.9° (Epoch: 11 July)

Event Time Altitude Azimuth Distance (km) Brightness Sun altitude
Exits shadow 01:24:11 21° 195° (SSW) 2,018 5.6 -15.2°
Maximum altitude 01:28:30 76° 279° (W) 992 4.5 -14.8°
Drops below altitude 10° 01:34:44 10° 6° (N) 2,721 7.8 -14.2°
Sets 01:37:16 0° 8° (N) 3,679 8.7 -13.9°
